Temp
27 28 27 28 28 27 25 23 23 21 20 19 19 20 20 20 20 19 19 18 18 18 18 17 17 17 17 17 17 16 17 16
26 27 27 27 28 26 25 22 22 20 18 18 18 19 20 20 20 20 19 19 18 18 18 17 17 17 17 17 16 16 15 16
23 24 25 26 26 26 24 22 22 20 20 19 19 19 19 19 19 19 19 18 18 18 18 17 17 16 16 16 16 14 15 15
24 24 24 26 25 25 23 22 21 20 20 18 19 18 17 17 18 19 19 19 18 18 18 18 17 16 15 15 15 15 15 14
23 24 22 24 23 24 24 22 20 20 19 18 18 18 17 18 17 17 18 19 18 18 18 17 17 16 15 14 15 15 14 14
23 24 22 26 26 24 22 22 20 20 19 19 18 18 18 18 16 17 17 19 18 17 17 17 17 15 15 14 14 14 14 14
24 24 25 22 22 21 20 20 20 19 19 19 19 18 17 16 16 16 16 17 17 17 16 16 17 16 15 15 14 14 14 14
22 17 15 14 15 17 19 19 18 18 19 19 19 18 17 18 17 16 16 16 15 16 16 16 16 16 15 15 14 14 14 14
14 14 14 14 14 15 16 17 17 18 18 18 18 18 18 18 18 17 18 18 17 17 16 16 16 16 15 15 14 14 14 14
13 13 12 12 12 12 14 16 16 16 17 17 17 17 18 18 18 18 18 17 17 17 16 16 16 15 15 14 14 14 14 14
13 12 11 11 11 11 13 14 14 15 16 16 17 17 17 18 18 18 17 17 16 17 17 17 16 16 15 14 14 14 13 13
12 11 11 10 10 10 10 11 12 13 14 15 16 17 18 18 18 18 17 17 17 17 17 16 16 15 14 14 13 13 13 13
11 11 10 9 9 9 8 9 10 11 13 14 15 15 16 17 17 17 17 17 17 16 16 16 16 15 14 13 13 13 13 13
10 10 9 8 7 7 7 7 8 9 12 13 13 14 15 15 16 16 16 16 16 15 16 15 14 13 13 13 13 13 13 13
10 9 8 7 6 6 6 6 6 7 8 10 11 12 13 14 15 15 15 15 15 15 15 14 14 13 12 12 11 11 11 12
10 9 9 7 6 6 4 4 4 5 5 6 7 9 10 13 13 14 15 15 15 15 14 14 13 12 11 11 11 11 11 11
10 10 9 8 6 5 4 3 3 3 3 4 4 6 8 10 12 13 14 14 14 13 13 13 12 12 11 11 11 11 11 11
8 8 7 7 5 4 3 3 3 3 2 2 3 3 4 6 8 10 13 13 13 13 13 12 12 12 11 11 11 11 11 11
6 6 6 6 4 3 2 2 2 2 2 1 2 2 2 3 5 6 8 11 12 13 12 11 12 12 12 11 11 11 11 11
Height
671 676 680 682 683 687 691 695 699 706 713 721 726 731 736 739 743 748 753 758 763 767 770 775 780 784 787 791 793 797 801 806
672 670 668 672 672 675 680 687 693 700 708 714 721 723 729 734 738 743 748 754 759 764 767 771 776 780 784 789 792 796 800 804
670 666 663 658 661 664 670 676 682 690 697 702 712 717 722 729 734 739 744 749 755 759 763 767 772 776 781 785 788 793 798 800
661 660 658 655 653 653 659 666 673 680 689 698 707 716 723 728 731 735 739 744 749 755 759 762 768 772 775 780 784 788 792 797
655 653 653 651 646 644 650 656 665 674 681 690 695 702 709 714 720 727 733 738 744 749 754 758 762 767 770 774 779 783 788 791
648 647 645 644 644 641 644 650 659 667 673 681 688 698 702 709 717 722 728 732 739 744 749 754 757 761 765 770 773 777 781 785
637 637 639 642 640 645 642 647 655 661 668 676 683 690 697 706 713 718 723 727 734 739 743 748 752 756 759 763 768 771 774 779
623 630 637 642 642 642 649 650 655 663 669 675 681 686 692 700 706 712 717 722 728 732 738 743 747 751 755 759 762 767 769 772
638 634 646 649 648 648 649 652 658 664 670 675 680 686 691 696 701 706 710 714 720 726 733 737 742 746 750 753 757 761 764 766
641 641 648 652 651 653 654 658 663 668 673 677 680 685 689 693 699 703 705 709 715 721 726 733 737 742 745 749 752 755 757 760
641 647 650 655 659 659 663 666 670 673 676 679 681 685 689 690 696 699 703 707 712 717 722 727 731 735 739 743 746 749 751 752
654 658 663 663 669 664 672 672 675 676 678 681 682 684 684 689 692 697 699 704 708 715 718 722 726 730 734 737 739 742 744 747
661 666 671 665 673 675 680 679 676 678 681 681 682 684 685 688 690 696 697 703 707 712 716 719 723 726 729 732 734 736 737 740
665 668 677 674 678 684 681 678 679 681 681 682 683 685 687 690 692 694 697 702 706 709 713 717 720 723 725 728 729 731 732 732
667 681 684 686 685 690 689 688 688 688 687 686 685 686 687 690 691 693 697 699 704 706 710 713 716 719 721 723 725 726 727 727
687 692 688 699 699 696 695 694 694 693 692 692 691 689 689 690 690 690 693 697 701 704 707 709 712 715 717 718 720 721 722 722
700 698 703 715 710 705 705 703 700 699 698 697 696 692 690 690 691 692 694 697 697 701 703 706 708 711 713 714 715 717 718 717
714 715 719 718 716 715 713 708 705 703 703 702 700 697 695 694 693 691 693 693 695 697 700 702 705 707 710 710 712 714 714 714
725 727 729 729 727 722 717 713 712 709 708 706 705 701 700 698 695 695 691 691 692 693 695 698 702 704 706 708 709 711 712 713
Wind_Speed
26 27 31 37 37 37 45 46 47 46 38 34 35 34 33 35 34 37 36 36 35 33 32 34 34 34 32 30 29 29 29 29
24 33 35 33 41 37 44 41 40 37 32 32 32 37 36 36 36 34 34 36 33 33 32 33 34 36 36 33 31 32 28 28
14 18 29 27 32 36 39 42 45 43 41 39 30 33 37 37 37 34 32 33 33 34 34 35 37 36 34 34 34 26 21 33
18 13 17 24 30 32 36 40 42 44 39 32 25 26 23 25 33 37 35 32 31 35 34 35 36 36 33 35 37 32 23 30
15 18 9 18 30 36 34 39 39 40 40 36 37 35 24 28 29 34 38 31 31 31 32 33 34 35 33 35 39 38 28 25
14 16 11 20 21 26 33 38 38 38 42 40 38 28 27 25 28 32 34 32 31 30 29 32 32 35 34 35 34 34 36 28
12 11 15 9 12 12 27 34 35 37 41 38 37 32 29 27 26 29 28 33 32 31 30 31 32 34 35 36 35 36 36 29
15 9 7 10 16 19 14 22 21 27 29 32 35 33 33 34 34 29 29 28 29 34 32 30 31 31 33 35 35 34 36 35
12 16 11 12 17 23 27 24 15 19 26 27 30 32 33 33 33 32 31 31 33 33 33 33 30 31 32 32 34 35 36 37
14 16 14 17 22 24 25 21 19 12 11 16 22 29 32 30 30 30 31 33 33 33 33 32 30 30 31 32 33 34 32 36
15 14 14 20 21 26 27 23 17 12 8 6 16 22 24 26 26 28 28 30 29 30 30 31 31 32 33 34 32 32 32 34
14 13 15 21 19 26 24 21 17 15 10 3 4 8 12 22 24 28 28 28 29 28 29 28 29 30 31 33 32 31 32 33
14 13 12 21 20 20 18 19 20 15 8 6 3 2 9 18 23 20 20 23 26 26 24 22 23 24 25 29 29 28 29 31
15 16 13 13 20 19 20 25 22 18 13 8 7 2 7 15 19 20 21 25 24 22 20 19 19 23 24 27 28 26 27 30
18 14 13 16 19 18 19 21 22 20 16 15 12 10 6 10 19 23 22 21 20 17 16 15 17 20 21 22 25 26 27 27
14 12 13 12 13 16 20 22 22 21 20 19 17 11 8 3 6 14 17 18 18 16 16 16 17 18 20 19 19 20 22 24
18 17 15 10 13 16 15 19 22 22 20 21 19 16 12 9 4 5 17 18 16 16 16 18 17 18 18 16 16 17 17 20
16 16 13 14 16 17 18 18 19 21 21 21 22 21 17 14 9 7 13 18 19 18 17 18 18 18 16 14 14 14 10 14
14 13 18 14 13 17 19 21 19 19 20 21 23 22 19 19 13 12 8 4 19 20 19 19 18 18 14 15 14 14 10 7
Wind_Direction
266 259 247 248 241 214 209 204 206 204 198 194 196 198 198 203 203 209 206 204 205 206 207 207 204 204 208 207 204 199 197 198
251 254 261 236 234 219 203 199 199 188 182 180 188 192 195 197 201 200 201 203 205 207 207 205 206 205 205 208 203 197 193 194
267 262 267 251 222 219 201 195 194 190 191 192 188 185 193 197 198 199 201 202 208 206 207 202 204 204 209 208 199 184 187 189
269 269 258 262 240 222 204 195 190 189 190 178 179 179 182 190 201 202 208 214 214 212 213 212 210 210 205 208 201 190 188 192
249 258 235 236 240 224 209 191 185 185 179 176 177 179 181 200 194 193 203 208 212 215 214 214 216 211 205 207 208 200 194 194
238 246 224 235 238 196 193 186 181 179 180 182 180 182 186 186 185 189 199 198 206 212 217 216 217 212 208 212 205 200 201 199
244 232 260 234 237 216 176 177 179 178 180 182 183 181 176 170 177 183 187 192 204 212 214 218 219 220 209 209 214 206 204 205
269 148 100 77 80 105 129 150 151 171 176 180 185 184 179 183 185 185 184 189 198 208 212 213 218 224 217 213 213 215 210 208
67 80 79 90 80 80 87 92 110 164 177 183 186 185 187 190 191 192 197 203 208 211 211 216 223 224 222 221 213 212 214 214
85 74 67 55 59 59 70 80 85 106 180 190 190 192 195 195 204 207 206 207 206 209 210 212 219 225 227 224 218 218 217 221
87 77 70 56 48 57 58 62 61 68 85 165 212 209 209 207 208 210 211 211 208 208 206 210 213 221 224 228 222 222 220 218
80 67 64 71 56 57 55 55 56 54 50 51 114 187 202 211 212 211 207 202 203 205 208 210 217 220 225 226 225 225 225 228
78 77 67 66 47 48 49 49 48 47 57 47 26 195 160 171 167 173 178 194 196 201 205 205 221 225 230 225 223 223 226 234
76 66 56 62 51 33 35 37 33 30 47 59 49 30 205 191 181 180 181 185 187 191 195 208 220 232 234 237 239 241 237 236
72 63 54 49 55 39 35 37 38 31 39 51 50 40 55 214 178 174 178 180 187 196 212 229 235 239 240 243 247 250 253 254
70 63 63 38 46 51 41 39 38 36 36 32 26 24 34 100 181 177 183 189 198 212 214 220 227 235 242 242 243 249 253 258
34 54 54 42 38 44 43 43 39 41 33 29 22 27 21 26 20 211 194 200 205 211 217 223 227 236 240 240 241 249 257 263
34 37 29 49 45 43 33 36 42 41 30 23 23 23 17 15 358 8 217 219 212 210 214 222 227 236 235 238 234 241 251 253
39 28 23 44 49 44 41 35 30 36 33 21 16 17 15 9 6 347 13 196 217 215 214 220 228 234 235 232 231 232 238 237